Location: Broadmoor
(37.6867°N, 122.4828°W)
Time: 07:41:14
(UTC+00:00)

Cosmos 773 Rocket - Pass Details

Date: 03 August 2024
Orbit: 742 x 775 km, 74.1° (Epoch: 14 September)

Event Time Altitude Azimuth Distance (km) Brightness Sun altitude
Exits shadow 12:31:40 - 200° (SSW) 2,873 6.5 -8.7°
Reaches altitude 10° 12:33:15 10° 202° (SSW) 2,255 6.0 -8.4°
Maximum altitude 12:38:22 78° 288° (WNW) 771 4.0 -7.5°
Drops below altitude 10° 12:43:33 10° 15° (NNE) 2,290 7.1 -6.6°
Sets 12:45:57 0° 17° (NNE) 3,224 8.0 -6.2°
